Location: *
(34.8436°N, 88.9333°W)
Time: 13:32:21
(UTC+00:00)

Daily predictions for brighter satellites

Satellite Brightness Start Highest point End
(mag) Time Altitude Azimuth Time Altitude Azimuth Time Altitude Azimuth
STARLINK 1044 4.2 12:02:14 18° W 12:04:12 30° NW 12:07:30 10° NNE
STARLINK 1063 4.5 12:03:03 10° SSW 12:07:04 52° SE 12:11:06 10° NE
Cosmos 1300 3.3 12:04:00 10° S 12:07:44 60° E 12:11:31 10° NNE
H-2A R/B 2.8 12:04:41 10° NNE 12:08:36 87° ESE 12:12:27 10° SSW
Cosmos 2181 Rocket 4.4 12:03:21 10° SW 12:09:03 38° WNW 12:14:53 10° N
STARLINK 1064 4.3 12:08:05 10° SSW 12:12:09 59° SE 12:16:13 10° NE
SL-8 Rocket 4.2 12:09:18 10° NNW 12:15:10 46° W 12:20:58 10° SSW
Okean O Rocket 2.2 12:11:29 10° N 12:15:31 35° WNW 12:19:31 10° SW
Cosmos 1908 4.2 12:13:09 10° SW 12:16:29 26° WNW 12:19:49 10° NNW
STARLINK 1041 4.0 12:13:02 10° SW 12:17:07 66° SE 12:21:14 10° NE
Okean-O 4.3 12:14:00 10° NNE 12:18:08 38° E 12:22:15 10° SSE
SL-16 R/B 2.8 12:16:53 10° SW 12:22:00 34° WNW 12:27:09 10° N
STARLINK 1038 3.9 12:17:59 10° SW 12:22:06 75° SE 12:26:14 10° NE
SL-4 R/B 2.2 12:20:13 11° WNW 12:23:19 38° SW 12:26:30 10° SSE
Cosmos 2058 Rocket 3.9 12:19:34 10° SW 12:23:20 28° WNW 12:27:07 10° NNW
STARLINK 1046 3.7 12:22:55 10° SW 12:27:03 83° SE 12:31:12 10° NE
Genesis I 3.1 12:24:07 10° NNW 12:27:58 82° WSW 12:31:46 10° SSE
BREEZE-M DEB (TANK) 4.0 12:27:53 10° SW 12:28:00 10° SW 12:28:06 10° SW
Cosmos 2360 Rocket 2.2 12:23:14 10° SSW 12:28:52 74° WNW 12:34:33 10° NNE
STARLINK 1039 3.6 12:27:53 10° SW 12:32:01 88° NW 12:36:11 10° NE
Cosmos 2219 Rocket 4.0 12:29:38 10° S 12:34:47 37° ESE 12:39:58 10° NE
Envisat 3.2 12:31:00 10° NNE 12:36:07 79° ESE 12:41:11 10° S
SKYMED 2 3.9 23:35:56 10° NNE 23:40:07 46° E 23:44:16 10° S
Cosmos 1300 3.0 23:37:37 10° NNW 23:41:24 71° W 23:45:11 10° S
Meteor 2-1 Rocket 4.2 23:36:35 10° N 23:42:03 61° E 23:47:33 10° SSE
Nadezhda 3 Rocket 4.1 23:36:20 10° N 23:42:41 86° E 23:49:02 10° S
DELTA 2 R/B (1) 4.0 23:39:12 10° W 23:44:40 54° N 23:50:10 10° ENE
Envisat 3.0 23:42:00 10° SSE 23:47:03 73° ENE 23:52:07 10° N
Cosmos 1812 Rocket 3.7 23:44:18 10° N 23:48:47 84° W 23:53:15 10° S
CZ-4C R/B 3.2 23:42:34 10° NNW 23:50:12 89° ENE 23:58:39 10° SSE
Cosmos-2242 3.6 23:46:26 10° NNE 23:50:22 33° E 23:54:14 10° SE
YAOGAN 1 3.6 23:48:27 10° SE 23:51:58 25° ENE 23:55:30 10° NNE
CZ-4 R/B 2.1 23:48:34 10° SE 23:52:06 31° ENE 23:55:43 10° N
Cosmos 1455 3.1 23:52:33 10° NNE 23:55:47 26° ENE 23:58:59 10° SE
